weather.gov     
National Weather Service

Terminal Aerodrome Forecast
NWS Homepage
This page is being discontinued on March 12, 2014.
The same data is available at this site. Please update your bookmarks.
Thank you, and we apologize for the inconvenience.
Please send an email to SR-SRH.Webmaster@noaa.gov with any concerns.


Current Version
Previous Version:    01  02  03  04  05  06  07  08  09  10  11  12  13  14  15  16  17  18  19  20  21  22  23  24  25  26  27  28  29  30  
   31  32  33  
[Printable]
727
FTAK31 PAJN 241700
TAFAPG
TAF
PAPG 241727Z 2418/2518 VRB04KT P6SM -RA OVC030
      TEMPO 2418/2421 5SM -SHRA BR
     FM242200 VRB04KT 6SM -SHRA BR SCT010 BKN030 OVC040
      AMD LTD TO CLD VIS AND WIND 2506/2515=


U.S. Dept. of Commerce
NOAA National Weather Service
1325 East West Highway
Silver Spring, MD 20910
E-mail: w-nws.webmaster@noaa.gov
Page last modified: May 16, 2007
NATIONAL WEATHER SERVICE: for Safety, for Work, for Fun - FOR LIFE